Weather History for Clarksburg, WV

Change the Weather History Date:

Friday, January 25, 2013

  Actual Average Record
Temperature  
Mean Temperature 16 °F -  
Max Temperature 21 °F 41 °F 73 °F (1950)
Min Temperature 10 °F 21 °F -16 °F (1936)
Degree Days  
Heating Degree Days 50    
Moisture  
Dew Point 12 °F    
Average Humidity 78    
Maximum Humidity 88    
Minimum Humidity 52    
Precipitation  
Precipitation 0.00 in - - ()
Sea Level Pressure  
Sea Level Pressure 30.14 in    
Wind  
Wind Speed 2 mph (ENE)    
Max Wind Speed 10 mph    
Max Gust Speed 16 mph    
Visibility 6 miles    
Events Fog , Snow    
Averages and records for this station are not official NWS values.
T = Trace of Precipitation, MM = Missing Value Source: NWS Daily Summary

Daily Weather History Graph

Daily Weather History Graph

Search for Another Location

Airport:

Trip Planner

Search our weather history database for the weather conditions in past years. The results will help you decide how hot, cold, wet, or windy it might be!

Date:

Astronomy

Jan. 25, 2013 Rise Set
Actual Time 7:33 AM EST 5:33 PM EST
Civil Twilight 7:04 AM EST 6:02 PM EST
Nautical Twilight 6:32 AM EST 6:34 PM EST
Astronomical Twilight 6:00 AM EST 7:06 PM EST
Moon 4:29 PM EST (1/25) 6:11 AM EST (1/25)
Length of Visible Light 10h 57m
Length of Day
10h 00m
Waxing Gibbous, 98% of the Moon is Illuminated
Jan 25
Waxing Gibbous
Jan 26
Full
Feb 3
Last Quarter
Feb 10
New
Feb 17
First Quarter

Hourly Weather History & Observations

Time (EST) Temp. Windchill Dew Point Humidity Pressure Visibility Wind Dir Wind Speed Gust Speed Precip Events Conditions
12:53 AM 10.0 °F - 6.1 °F 84% 30.50 in 10.0 mi Calm Calm - N/A   Clear
1:53 AM 12.0 °F - 6.1 °F 77% 30.46 in 10.0 mi Calm Calm - N/A   Clear
2:53 AM 12.0 °F - 5.0 °F 73% 30.46 in 10.0 mi Calm Calm - N/A   Clear
3:53 AM 12.0 °F 4.1 °F 6.1 °F 77% 30.43 in 10.0 mi NE 4.6 mph - N/A   Clear
4:53 AM 12.9 °F - 5.0 °F 71% 30.42 in 10.0 mi Calm Calm - N/A   Mostly Cloudy
5:53 AM 12.9 °F 5.2 °F 3.9 °F 67% 30.36 in 10.0 mi ENE 4.6 mph - N/A   Overcast
6:53 AM 14.0 °F 8.2 °F 3.9 °F 64% 30.34 in 10.0 mi ENE 3.5 mph - N/A   Overcast
7:53 AM 15.1 °F 2.5 °F 3.9 °F 61% 30.23 in 10.0 mi East 10.4 mph - N/A   Overcast
8:53 AM 16.0 °F 8.8 °F 5.0 °F 62% 30.26 in 10.0 mi NNE 4.6 mph - N/A   Overcast
9:53 AM 17.1 °F 8.7 °F 5.0 °F 59% 30.22 in 10.0 mi NE 5.8 mph - N/A   Overcast
10:53 AM 19.0 °F 12.3 °F 3.9 °F 52% 30.19 in 10.0 mi NE 4.6 mph - N/A   Overcast
11:53 AM 19.9 °F 14.9 °F 5.0 °F 52% 30.14 in 10.0 mi East 3.5 mph - N/A   Overcast
12:38 PM 21.2 °F - 6.8 °F 54% 30.05 in 2.0 mi Calm Calm - N/A   Haze
12:53 PM 19.9 °F - 10.9 °F 68% 30.09 in 0.5 mi Calm Calm - 0.00 in Snow Snow
1:32 PM 19.4 °F - 15.8 °F 86% 30.03 in 0.5 mi Calm Calm - 0.00 in Snow Snow
1:45 PM 19.4 °F - 15.8 °F 86% 30.03 in 1.0 mi Calm Calm - 0.00 in Snow Light Snow
1:53 PM 19.9 °F 14.9 °F 15.1 °F 81% 30.07 in 0.8 mi NNW 3.5 mph - 0.00 in Snow Light Snow
2:19 PM 19.4 °F 12.8 °F 15.8 °F 86% 30.02 in 0.5 mi NNE 4.6 mph - 0.00 in Fog , Snow Snow
2:53 PM 19.0 °F - 16.0 °F 88% 30.05 in 0.8 mi Calm Calm - 0.00 in Snow Light Snow
3:01 PM 19.4 °F - 15.8 °F 86% 30.00 in 1.0 mi Calm Calm - 0.00 in Snow Light Snow
3:39 PM 19.4 °F - 15.8 °F 86% 29.99 in 2.0 mi Calm Calm - 0.00 in Snow Light Snow
3:53 PM 21.0 °F - 16.0 °F 81% 30.04 in 3.0 mi Calm Calm - 0.00 in Snow Light Snow
4:06 PM 21.2 °F - 17.6 °F 86% 29.99 in 6.0 mi Calm Calm - 0.00 in Snow Light Snow
4:48 PM 21.2 °F - 15.8 °F 80% 29.99 in 0.8 mi Calm Calm - 0.00 in Snow Light Snow
4:53 PM 21.0 °F - 17.1 °F 85% 30.04 in 0.8 mi Calm Calm - 0.00 in Snow Light Snow
5:00 PM 21.2 °F - 17.6 °F 86% 29.99 in 5.0 mi Calm Calm - 0.00 in   Overcast
5:46 PM 21.2 °F - 17.6 °F 86% 30.00 in 5.0 mi Calm Calm - 0.00 in   Overcast
5:53 PM 21.0 °F - 17.1 °F 85% 30.04 in 5.0 mi Calm Calm - 0.00 in   Overcast
6:53 PM 21.0 °F - 17.1 °F 85% 30.06 in 10.0 mi Calm Calm - N/A   Overcast
7:53 PM 21.0 °F 14.6 °F 17.1 °F 85% 30.08 in 10.0 mi SSW 4.6 mph - N/A   Overcast
8:15 PM 21.2 °F 12.6 °F 17.6 °F 86% 30.03 in 10.0 mi SSW 6.9 mph - N/A   Overcast
8:53 PM 21.9 °F 12.5 °F 18.0 °F 85% 30.08 in 9.0 mi SW 8.1 mph - N/A   Overcast
9:53 PM 21.9 °F 11.7 °F 18.0 °F 85% 30.10 in 8.0 mi SW 9.2 mph - N/A   Overcast
10:31 PM 21.2 °F 11.7 °F 17.6 °F 86% 30.08 in 9.0 mi West 8.1 mph - N/A   Overcast
10:53 PM 21.9 °F 11.0 °F 18.0 °F 85% 30.13 in 8.0 mi WSW 10.4 mph 16.1 mph N/A   Overcast
11:53 PM 21.9 °F 12.5 °F 18.0 °F 85% 30.14 in 5.0 mi SW 8.1 mph - 0.00 in Snow Light Snow